Time,TemperatureF,DewpointF,PressureIn,WindDirection,WindDirectionDegrees,WindSpeedMPH,WindSpeedGustMPH,Humidity,HourlyPrecipIn,Conditions,Clouds,dailyrainin,SoftwareType,DateUTC
2013-03-07 00:02:00,32.5,24.2,29.95,SE,129,0.0,0.0,71,0.00,,---,0.00,VWS V14.00,2013-03-07 07:02:00,
2013-03-07 00:08:00,32.3,24.0,29.90,SE,129,0.0,0.0,71,0.00,,---,0.00,VWS V14.00,2013-03-07 07:08:00,
2013-03-07 00:13:00,32.2,23.9,29.90,SE,129,0.0,0.0,71,0.00,,---,0.00,VWS V14.00,2013-03-07 07:13:00,
2013-03-07 00:18:00,32.1,23.8,29.90,SE,129,0.0,0.0,71,0.00,,---,0.00,VWS V14.00,2013-03-07 07:18:00,
2013-03-07 00:23:00,31.9,23.6,29.90,SE,129,0.0,0.0,71,0.00,,---,0.00,VWS V14.00,2013-03-07 07:23:00,
2013-03-07 00:28:00,31.7,23.4,29.90,SE,129,0.0,0.0,71,0.00,,---,0.00,VWS V14.00,2013-03-07 07:28:00,
2013-03-07 00:33:00,31.5,23.5,29.90,SE,129,0.0,0.0,72,0.00,,---,0.00,VWS V14.00,2013-03-07 07:33:00,
2013-03-07 00:38:00,31.4,23.4,29.90,SE,129,0.0,0.0,72,0.00,,---,0.00,VWS V14.00,2013-03-07 07:38:00,
2013-03-07 00:45:00,31.2,23.2,29.90,SE,129,0.0,0.0,72,0.00,,---,0.00,VWS V14.00,2013-03-07 07:45:00,
2013-03-07 00:50:00,31.1,23.1,29.90,SE,129,0.0,0.0,72,0.00,,---,0.00,VWS V14.00,2013-03-07 07:50:00,
2013-03-07 00:55:00,31.0,23.0,29.91,SE,129,0.0,0.0,72,0.00,,---,0.00,VWS V14.00,2013-03-07 07:55:00,
2013-03-07 01:00:00,31.0,23.0,29.90,SE,129,0.0,0.0,72,0.00,,---,0.00,VWS V14.00,2013-03-07 08:00:00,
2013-03-07 01:05:00,30.8,22.9,29.87,SE,129,0.0,0.0,72,0.00,,---,0.00,VWS V14.00,2013-03-07 08:05:00,
2013-03-07 01:10:00,30.8,23.2,29.87,SE,129,0.0,0.0,73,0.00,,---,0.00,VWS V14.00,2013-03-07 08:10:00,
2013-03-07 01:15:00,30.7,23.1,29.87,SE,129,0.0,0.0,73,0.00,,---,0.00,VWS V14.00,2013-03-07 08:15:00,
2013-03-07 01:20:00,30.7,23.1,29.87,SE,129,0.0,0.0,73,0.00,,---,0.00,VWS V14.00,2013-03-07 08:20:00,
2013-03-07 01:25:00,30.7,23.4,29.86,SE,129,1.0,1.0,74,0.00,,---,0.00,VWS V14.00,2013-03-07 08:25:00,
2013-03-07 01:30:00,30.8,23.5,29.87,SE,129,2.0,2.0,74,0.00,,---,0.00,VWS V14.00,2013-03-07 08:30:00,
2013-03-07 01:35:00,30.9,23.6,29.87,SE,129,0.0,0.0,74,0.00,,---,0.00,VWS V14.00,2013-03-07 08:35:00,
2013-03-07 01:40:00,30.8,23.5,29.87,SE,129,0.0,0.0,74,0.00,,---,0.00,VWS V14.00,2013-03-07 08:40:00,
2013-03-07 01:45:00,30.9,23.6,29.87,SE,129,0.0,0.0,74,0.00,,---,0.00,VWS V14.00,2013-03-07 08:45:00,
2013-03-07 01:50:00,30.9,23.6,29.87,SE,129,0.0,0.0,74,0.00,,---,0.00,VWS V14.00,2013-03-07 08:50:00,
2013-03-07 01:55:00,30.8,23.5,29.87,SE,129,0.0,0.0,74,0.00,,---,0.00,VWS V14.00,2013-03-07 08:55:00,
2013-03-07 02:00:00,30.7,23.4,29.87,SE,129,0.0,0.0,74,0.00,,---,0.00,VWS V14.00,2013-03-07 09:00:00,
2013-03-07 02:05:00,30.6,23.3,29.86,SE,129,0.0,0.0,74,0.00,,---,0.00,VWS V14.00,2013-03-07 09:05:00,
2013-03-07 02:10:00,30.6,23.3,29.86,SE,129,0.0,0.0,74,0.00,,---,0.00,VWS V14.00,2013-03-07 09:10:00,
2013-03-07 02:16:00,30.6,23.3,29.86,SE,129,0.0,0.0,74,0.00,,---,0.00,VWS V14.00,2013-03-07 09:16:00,
2013-03-07 02:22:00,30.6,23.3,29.86,SE,129,0.0,0.0,74,0.00,,---,0.00,VWS V14.00,2013-03-07 09:22:00,
2013-03-07 02:27:00,30.5,23.2,29.86,SE,129,0.0,0.0,74,0.00,,---,0.00,VWS V14.00,2013-03-07 09:27:00,
2013-03-07 02:32:00,30.5,23.2,29.86,SE,129,0.0,0.0,74,0.00,,---,0.00,VWS V14.00,2013-03-07 09:32:00,
2013-03-07 02:37:00,30.4,23.1,29.88,SE,129,0.0,0.0,74,0.00,,---,0.00,VWS V14.00,2013-03-07 09:37:00,
2013-03-07 02:42:00,30.2,23.2,29.88,SE,129,0.0,0.0,75,0.00,,---,0.00,VWS V14.00,2013-03-07 09:42:00,
2013-03-07 02:47:00,30.1,23.1,29.87,SE,129,0.0,0.0,75,0.00,,---,0.00,VWS V14.00,2013-03-07 09:47:00,
2013-03-07 02:52:00,30.1,23.1,29.87,SE,129,0.0,2.0,75,0.00,,---,0.00,VWS V14.00,2013-03-07 09:52:00,
2013-03-07 02:58:00,30.0,23.0,29.87,SE,129,0.0,0.0,75,0.00,,---,0.00,VWS V14.00,2013-03-07 09:58:00,
2013-03-07 03:04:00,29.9,23.0,29.88,SE,129,0.0,0.0,75,0.00,,---,0.00,VWS V14.00,2013-03-07 10:04:00,
2013-03-07 03:09:00,29.8,22.9,29.88,SE,129,0.0,0.0,75,0.00,,---,0.00,VWS V14.00,2013-03-07 10:09:00,
2013-03-07 03:15:00,29.7,22.8,29.88,SE,129,0.0,0.0,75,0.00,,---,0.00,VWS V14.00,2013-03-07 10:15:00,
2013-03-07 03:20:00,29.6,22.7,29.88,SE,129,0.0,0.0,75,0.00,,---,0.00,VWS V14.00,2013-03-07 10:20:00,
2013-03-07 03:26:00,29.5,22.9,29.88,SE,129,1.0,2.0,76,0.00,,---,0.00,VWS V14.00,2013-03-07 10:26:00,
2013-03-07 03:31:00,29.5,22.9,29.88,SE,129,0.0,0.0,76,0.00,,---,0.00,VWS V14.00,2013-03-07 10:31:00,
2013-03-07 03:36:00,29.4,22.8,29.88,SE,129,0.0,0.0,76,0.00,,---,0.00,VWS V14.00,2013-03-07 10:36:00,
2013-03-07 03:41:00,29.4,22.8,29.89,SE,129,0.0,0.0,76,0.00,,---,0.00,VWS V14.00,2013-03-07 10:41:00,
2013-03-07 03:47:00,29.3,22.7,29.89,SE,129,0.0,0.0,76,0.00,,---,0.00,VWS V14.00,2013-03-07 10:47:00,
2013-03-07 03:52:00,29.4,22.8,29.89,SE,129,0.0,0.0,76,0.00,,---,0.00,VWS V14.00,2013-03-07 10:52:00,
2013-03-07 03:57:00,29.3,22.7,29.89,SE,129,0.0,0.0,76,0.00,,---,0.00,VWS V14.00,2013-03-07 10:57:00,
2013-03-07 04:02:00,29.3,22.7,29.89,SE,129,0.0,0.0,76,0.00,,---,0.00,VWS V14.00,2013-03-07 11:02:00,
2013-03-07 04:08:00,29.3,22.7,29.92,SE,129,0.0,0.0,76,0.00,,---,0.00,VWS V14.00,2013-03-07 11:08:00,
2013-03-07 04:14:00,29.3,22.7,29.92,SE,129,0.0,0.0,76,0.00,,---,0.00,VWS V14.00,2013-03-07 11:14:00,
2013-03-07 04:19:00,29.3,22.4,29.92,SE,129,0.0,0.0,75,0.00,,---,0.00,VWS V14.00,2013-03-07 11:19:00,
2013-03-07 04:25:00,29.3,22.4,29.92,SE,129,0.0,0.0,75,0.00,,---,0.00,VWS V14.00,2013-03-07 11:25:00,
2013-03-07 04:31:00,29.2,22.3,29.92,SE,129,0.0,0.0,75,0.00,,---,0.00,VWS V14.00,2013-03-07 11:31:00,
2013-03-07 04:36:00,29.1,22.2,29.92,SE,129,0.0,0.0,75,0.00,,---,0.00,VWS V14.00,2013-03-07 11:36:00,
2013-03-07 04:42:00,29.0,22.1,29.92,SE,129,0.0,0.0,75,0.00,,---,0.00,VWS V14.00,2013-03-07 11:42:00,
2013-03-07 04:48:00,28.9,22.0,29.93,SE,129,0.0,0.0,75,0.00,,---,0.00,VWS V14.00,2013-03-07 11:48:00,
2013-03-07 04:53:00,28.9,22.0,29.93,SE,129,0.0,0.0,75,0.00,,---,0.00,VWS V14.00,2013-03-07 11:53:00,
2013-03-07 04:58:00,28.8,21.9,29.93,SE,129,0.0,0.0,75,0.00,,---,0.00,VWS V14.00,2013-03-07 11:58:00,
2013-03-07 05:03:00,28.8,21.9,29.96,SE,129,0.0,0.0,75,0.00,,---,0.00,VWS V14.00,2013-03-07 12:03:00,
2013-03-07 05:08:00,28.7,21.8,29.96,SE,129,0.0,0.0,75,0.00,,---,0.00,VWS V14.00,2013-03-07 12:08:00,
2013-03-07 05:14:00,28.7,22.1,29.97,SE,129,0.0,0.0,76,0.00,,---,0.00,VWS V14.00,2013-03-07 12:14:00,
2013-03-07 05:19:00,28.7,22.1,29.97,SE,129,0.0,0.0,76,0.00,,---,0.00,VWS V14.00,2013-03-07 12:19:00,
2013-03-07 05:25:00,28.8,22.2,29.96,SE,129,0.0,0.0,76,0.00,,---,0.00,VWS V14.00,2013-03-07 12:25:00,
2013-03-07 05:30:00,28.8,22.2,29.97,SE,129,0.0,0.0,76,0.00,,---,0.00,VWS V14.00,2013-03-07 12:30:00,
2013-03-07 05:35:00,29.0,22.4,29.97,SE,129,0.0,0.0,76,0.00,,---,0.00,VWS V14.00,2013-03-07 12:35:00,
2013-03-07 05:40:00,29.1,22.2,29.96,SE,129,0.0,0.0,75,0.00,,---,0.00,VWS V14.00,2013-03-07 12:40:00,
2013-03-07 05:45:00,29.0,22.4,29.97,SE,129,0.0,0.0,76,0.00,,---,0.00,VWS V14.00,2013-03-07 12:45:00,
2013-03-07 05:50:00,29.1,22.5,29.97,SE,129,0.0,0.0,76,0.00,,---,0.00,VWS V14.00,2013-03-07 12:50:00,
2013-03-07 05:56:00,29.1,22.2,29.97,SE,129,0.0,0.0,75,0.00,,---,0.00,VWS V14.00,2013-03-07 12:56:00,
2013-03-07 06:01:00,29.1,22.2,29.98,SE,129,0.0,0.0,75,0.00,,---,0.00,VWS V14.00,2013-03-07 13:01:00,
2013-03-07 06:06:00,29.1,22.2,30.00,SE,129,0.0,0.0,75,0.00,,---,0.00,VWS V14.00,2013-03-07 13:06:00,
2013-03-07 06:11:00,29.2,22.3,30.00,SE,129,0.0,1.0,75,0.00,,---,0.00,VWS V14.00,2013-03-07 13:11:00,
2013-03-07 06:16:00,29.2,22.3,30.00,SE,129,0.0,0.0,75,0.00,,---,0.00,VWS V14.00,2013-03-07 13:16:00,
2013-03-07 06:21:00,29.3,22.4,30.00,SE,129,0.0,0.0,75,0.00,,---,0.00,VWS V14.00,2013-03-07 13:21:00,
2013-03-07 06:26:00,29.2,22.0,30.00,SE,129,0.0,0.0,74,0.00,,---,0.00,VWS V14.00,2013-03-07 13:26:00,
2013-03-07 06:32:00,29.2,22.0,30.01,SE,129,0.0,0.0,74,0.00,,---,0.00,VWS V14.00,2013-03-07 13:32:00,
2013-03-07 06:37:00,29.1,21.9,30.01,SE,129,0.0,0.0,74,0.00,,---,0.00,VWS V14.00,2013-03-07 13:37:00,
2013-03-07 06:42:00,29.1,21.9,30.01,SE,129,0.0,0.0,74,0.00,,---,0.00,VWS V14.00,2013-03-07 13:42:00,
2013-03-07 06:47:00,29.2,22.0,30.02,SE,129,0.0,0.0,74,0.00,,---,0.00,VWS V14.00,2013-03-07 13:47:00,
2013-03-07 06:52:00,29.1,21.9,30.02,SE,129,0.0,0.0,74,0.00,,---,0.00,VWS V14.00,2013-03-07 13:52:00,
2013-03-07 06:57:00,29.0,21.8,30.02,SE,129,0.0,0.0,74,0.00,,---,0.00,VWS V14.00,2013-03-07 13:57:00,
2013-03-07 07:02:00,29.1,21.9,30.02,SE,129,0.0,0.0,74,0.00,,---,0.00,VWS V14.00,2013-03-07 14:02:00,
2013-03-07 07:07:00,29.9,23.0,30.05,SE,129,0.0,0.0,75,0.00,,---,0.00,VWS V14.00,2013-03-07 14:07:00,
2013-03-07 07:12:00,30.4,23.1,30.06,SE,129,0.0,0.0,74,0.00,,---,0.00,VWS V14.00,2013-03-07 14:12:00,
2013-03-07 07:17:00,31.2,23.9,30.06,SE,129,0.0,0.0,74,0.00,,---,0.00,VWS V14.00,2013-03-07 14:17:00,
2013-03-07 07:22:00,31.9,23.9,30.05,SE,129,0.0,0.0,72,0.00,,---,0.00,VWS V14.00,2013-03-07 14:22:00,
2013-03-07 07:27:00,33.1,24.7,30.06,SE,129,0.0,0.0,71,0.00,,---,0.00,VWS V14.00,2013-03-07 14:27:00,
2013-03-07 07:33:00,34.1,24.7,30.05,SE,129,0.0,0.0,68,0.00,,---,0.00,VWS V14.00,2013-03-07 14:33:00,
2013-03-07 07:38:00,34.8,25.3,30.05,SE,129,0.0,0.0,68,0.00,,---,0.00,VWS V14.00,2013-03-07 14:38:00,
2013-03-07 07:44:00,37.2,25.0,30.04,SE,129,1.0,1.0,61,0.00,,---,0.00,VWS V14.00,2013-03-07 14:44:00,
2013-03-07 07:49:00,38.0,25.0,30.03,SE,129,0.0,0.0,59,0.00,,---,0.00,VWS V14.00,2013-03-07 14:49:00,
2013-03-07 07:54:00,39.3,24.9,30.03,SE,129,0.0,0.0,56,0.00,,---,0.00,VWS V14.00,2013-03-07 14:54:00,
2013-03-07 08:00:00,40.1,26.1,30.03,SE,128,0.0,1.0,57,0.00,,---,0.00,VWS V14.00,2013-03-07 15:00:00,
2013-03-07 08:05:00,40.5,25.6,30.04,SE,128,1.0,1.0,55,0.00,,---,0.00,VWS V14.00,2013-03-07 15:05:00,
2013-03-07 08:10:00,40.9,25.1,30.04,SE,128,0.0,1.0,53,0.00,,---,0.00,VWS V14.00,2013-03-07 15:10:00,
2013-03-07 08:15:00,41.1,24.8,30.04,SE,128,0.0,0.0,52,0.00,,---,0.00,VWS V14.00,2013-03-07 15:15:00,
2013-03-07 08:20:00,41.4,25.1,30.04,SE,128,0.0,1.0,52,0.00,,---,0.00,VWS V14.00,2013-03-07 15:20:00,
2013-03-07 08:25:00,41.4,25.1,30.04,SE,128,1.0,1.0,52,0.00,,---,0.00,VWS V14.00,2013-03-07 15:25:00,
2013-03-07 08:30:00,41.6,24.8,30.03,SE,128,0.0,1.0,51,0.00,,---,0.00,VWS V14.00,2013-03-07 15:30:00,
2013-03-07 08:35:00,41.8,24.5,30.03,SE,128,0.0,1.0,50,0.00,,---,0.00,VWS V14.00,2013-03-07 15:35:00,
2013-03-07 08:40:00,42.1,23.8,30.04,North,10,0.0,2.0,48,0.00,,---,0.00,VWS V14.00,2013-03-07 15:40:00,
2013-03-07 08:45:00,42.4,24.1,30.04,North,10,0.0,1.0,48,0.00,,---,0.00,VWS V14.00,2013-03-07 15:45:00,
2013-03-07 08:50:00,43.1,24.3,30.03,North,10,0.0,1.0,47,0.00,,---,0.00,VWS V14.00,2013-03-07 15:50:00,
2013-03-07 08:55:00,43.8,24.9,30.02,North,10,0.0,0.0,47,0.00,,---,0.00,VWS V14.00,2013-03-07 15:55:00,
2013-03-07 09:00:00,44.2,25.3,30.02,North,10,1.0,2.0,47,0.00,,---,0.00,VWS V14.00,2013-03-07 16:00:00,
2013-03-07 09:05:00,44.5,25.5,30.03,North,10,0.0,0.0,47,0.00,,---,0.00,VWS V14.00,2013-03-07 16:05:00,
2013-03-07 09:10:00,44.8,26.3,30.03,North,10,2.0,3.0,48,0.00,,---,0.00,VWS V14.00,2013-03-07 16:10:00,
2013-03-07 09:15:00,45.3,27.3,30.03,North,10,0.0,2.0,49,0.00,,---,0.00,VWS V14.00,2013-03-07 16:15:00,
2013-03-07 09:20:00,45.5,27.5,30.03,North,10,1.0,1.0,49,0.00,,---,0.00,VWS V14.00,2013-03-07 16:20:00,
2013-03-07 09:25:00,45.6,27.1,30.03,NE,36,0.0,0.0,48,0.00,,---,0.00,VWS V14.00,2013-03-07 16:25:00,
2013-03-07 09:30:00,45.7,27.6,30.03,NE,36,0.0,1.0,49,0.00,,---,0.00,VWS V14.00,2013-03-07 16:30:00,
2013-03-07 09:36:00,46.4,27.8,30.03,NE,35,1.0,3.0,48,0.00,,---,0.00,VWS V14.00,2013-03-07 16:36:00,
2013-03-07 09:42:00,46.5,27.9,30.02,NE,35,0.0,1.0,48,0.00,,---,0.00,VWS V14.00,2013-03-07 16:42:00,
2013-03-07 09:47:00,46.7,27.0,30.02,NE,35,0.0,2.0,46,0.00,,---,0.00,VWS V14.00,2013-03-07 16:47:00,
2013-03-07 09:52:00,46.8,27.6,30.02,NE,34,2.0,2.0,47,0.00,,---,0.00,VWS V14.00,2013-03-07 16:52:00,
2013-03-07 09:57:00,47.4,27.7,30.01,East,92,0.0,1.0,46,0.00,,---,0.00,VWS V14.00,2013-03-07 16:57:00,
2013-03-07 10:03:00,48.2,28.4,30.02,NNE,27,0.0,2.0,46,0.00,,---,0.00,VWS V14.00,2013-03-07 17:03:00,
2013-03-07 10:09:00,48.1,28.3,30.02,NNE,27,0.0,1.0,46,0.00,,---,0.00,VWS V14.00,2013-03-07 17:09:00,
2013-03-07 10:14:00,48.9,28.5,30.01,NNE,21,2.0,2.0,45,0.00,,---,0.00,VWS V14.00,2013-03-07 17:14:00,
2013-03-07 10:19:00,49.3,27.2,30.01,NNE,21,0.0,2.0,42,0.00,,---,0.00,VWS V14.00,2013-03-07 17:19:00,
2013-03-07 10:25:00,50.2,27.4,30.00,NNE,21,0.0,0.0,41,0.00,,---,0.00,VWS V14.00,2013-03-07 17:25:00,
2013-03-07 10:30:00,51.0,26.9,30.00,NNE,21,0.0,0.0,39,0.00,,---,0.00,VWS V14.00,2013-03-07 17:30:00,
2013-03-07 10:35:00,51.3,26.6,30.00,NNE,21,0.0,1.0,38,0.00,,---,0.00,VWS V14.00,2013-03-07 17:35:00,
2013-03-07 10:40:00,51.6,25.5,29.99,NNE,21,0.0,1.0,36,0.00,,---,0.00,VWS V14.00,2013-03-07 17:40:00,
2013-03-07 10:45:00,51.8,25.7,29.99,NNE,21,0.0,1.0,36,0.00,,---,0.00,VWS V14.00,2013-03-07 17:45:00,
2013-03-07 10:50:00,52.9,26.7,29.99,East,92,0.0,1.0,36,0.00,,---,0.00,VWS V14.00,2013-03-07 17:50:00,
2013-03-07 10:55:00,53.4,25.8,29.98,East,92,0.0,1.0,34,0.00,,---,0.00,VWS V14.00,2013-03-07 17:55:00,
2013-03-07 11:00:00,53.6,25.9,29.98,East,89,0.0,0.0,34,0.00,,---,0.00,VWS V14.00,2013-03-07 18:00:00,
2013-03-07 11:05:00,54.0,27.0,29.99,East,89,0.0,4.0,35,0.00,,---,0.00,VWS V14.00,2013-03-07 18:05:00,
2013-03-07 11:10:00,54.7,28.3,29.98,East,98,0.0,2.0,36,0.00,,---,0.00,VWS V14.00,2013-03-07 18:10:00,
2013-03-07 11:16:00,54.5,28.1,29.98,East,98,3.0,3.0,36,0.00,,---,0.00,VWS V14.00,2013-03-07 18:16:00,
2013-03-07 11:21:00,54.6,28.2,29.98,ESE,113,1.0,3.0,36,0.00,,---,0.00,VWS V14.00,2013-03-07 18:21:00,
2013-03-07 11:26:00,54.5,27.4,29.98,East,91,2.0,5.0,35,0.00,,---,0.00,VWS V14.00,2013-03-07 18:26:00,
2013-03-07 11:31:00,54.9,27.8,29.98,East,101,0.0,3.0,35,0.00,,---,0.00,VWS V14.00,2013-03-07 18:31:00,
2013-03-07 11:36:00,55.6,27.0,29.97,ESE,107,1.0,5.0,33,0.00,,---,0.00,VWS V14.00,2013-03-07 18:36:00,
2013-03-07 11:41:00,56.2,28.2,29.97,ESE,122,2.0,6.0,34,0.00,,---,0.00,VWS V14.00,2013-03-07 18:41:00,
2013-03-07 11:46:00,57.2,29.1,29.95,ESE,120,1.0,4.0,34,0.00,,---,0.00,VWS V14.00,2013-03-07 18:46:00,
2013-03-07 11:52:00,58.0,28.3,29.95,ESE,122,0.0,1.0,32,0.00,,---,0.00,VWS V14.00,2013-03-07 18:52:00,
2013-03-07 11:57:00,58.5,30.2,29.94,ESE,114,0.0,3.0,34,0.00,,---,0.00,VWS V14.00,2013-03-07 18:57:00,
2013-03-07 12:02:00,58.5,30.2,29.93,East,86,0.0,2.0,34,0.00,,---,0.00,VWS V14.00,2013-03-07 19:02:00,
2013-03-07 12:07:00,59.0,30.0,29.94,East,86,0.0,3.0,33,0.00,,---,0.00,VWS V14.00,2013-03-07 19:07:00,
2013-03-07 12:12:00,59.5,31.1,29.94,SE,131,0.0,5.0,34,0.00,,---,0.00,VWS V14.00,2013-03-07 19:12:00,
2013-03-07 12:17:00,59.6,28.1,29.94,East,84,0.0,3.0,30,0.00,,---,0.00,VWS V14.00,2013-03-07 19:17:00,
2013-03-07 12:24:00,61.1,28.6,29.92,SW,219,3.0,3.0,29,0.00,,---,0.00,VWS V14.00,2013-03-07 19:24:00,
2013-03-07 12:29:00,61.2,28.7,29.92,SW,221,0.0,1.0,29,0.00,,---,0.00,VWS V14.00,2013-03-07 19:29:00,
2013-03-07 12:34:00,62.1,30.3,29.91,SSW,206,1.0,1.0,30,0.00,,---,0.00,VWS V14.00,2013-03-07 19:34:00,
2013-03-07 12:40:00,62.8,28.4,29.90,ESE,123,0.0,1.0,27,0.00,,---,0.00,VWS V14.00,2013-03-07 19:40:00,
2013-03-07 12:46:00,63.8,27.3,29.89,SE,131,2.0,4.0,25,0.00,,---,0.00,VWS V14.00,2013-03-07 19:46:00,
2013-03-07 12:52:00,63.8,25.3,29.89,ESE,115,2.0,4.0,23,0.00,,---,0.00,VWS V14.00,2013-03-07 19:52:00,
2013-03-07 12:57:00,62.8,25.5,29.89,ESE,114,0.0,1.0,24,0.00,,---,0.00,VWS V14.00,2013-03-07 19:57:00,
2013-03-07 13:02:00,64.0,26.5,29.88,ESE,113,0.0,4.0,24,0.00,,---,0.00,VWS V14.00,2013-03-07 20:02:00,
2013-03-07 13:07:00,64.4,28.8,29.88,ESE,115,0.0,4.0,26,0.00,,---,0.00,VWS V14.00,2013-03-07 20:07:00,
2013-03-07 13:12:00,64.8,28.2,29.86,ESE,115,1.0,3.0,25,0.00,,---,0.00,VWS V14.00,2013-03-07 20:12:00,
2013-03-07 13:18:00,65.0,28.4,29.86,East,80,3.0,6.0,25,0.00,,---,0.00,VWS V14.00,2013-03-07 20:18:00,
2013-03-07 13:24:00,64.5,28.9,29.86,ESE,117,0.0,4.0,26,0.00,,---,0.00,VWS V14.00,2013-03-07 20:24:00,
2013-03-07 13:29:00,65.2,28.5,29.85,ESE,112,1.0,2.0,25,0.00,,---,0.00,VWS V14.00,2013-03-07 20:29:00,
2013-03-07 13:34:00,65.8,30.9,29.85,NE,54,3.0,6.0,27,0.00,,---,0.00,VWS V14.00,2013-03-07 20:34:00,
2013-03-07 13:39:00,64.7,29.0,29.84,ESE,119,0.0,3.0,26,0.00,,---,0.00,VWS V14.00,2013-03-07 20:39:00,
2013-03-07 13:44:00,64.8,27.2,29.84,East,99,0.0,4.0,24,0.00,,---,0.00,VWS V14.00,2013-03-07 20:44:00,
2013-03-07 13:51:00,65.1,26.4,29.84,NE,45,3.0,7.0,23,0.00,,---,0.00,VWS V14.00,2013-03-07 20:51:00,
2013-03-07 13:56:00,65.1,27.4,29.84,NE,38,0.0,5.0,24,0.00,,---,0.00,VWS V14.00,2013-03-07 20:56:00,
2013-03-07 14:01:00,65.5,29.7,29.84,ESE,116,6.0,10.0,26,0.00,,---,0.00,VWS V14.00,2013-03-07 21:01:00,
2013-03-07 14:07:00,65.6,28.9,29.84,SE,131,4.0,6.0,25,0.00,,---,0.00,VWS V14.00,2013-03-07 21:07:00,
2013-03-07 14:12:00,65.3,29.6,29.85,ENE,59,2.0,7.0,26,0.00,,---,0.00,VWS V14.00,2013-03-07 21:12:00,
2013-03-07 14:17:00,65.3,30.5,29.84,East,83,4.0,4.0,27,0.00,,---,0.00,VWS V14.00,2013-03-07 21:17:00,
2013-03-07 14:22:00,65.0,30.2,29.85,ESE,117,11.0,11.0,27,0.00,,---,0.00,VWS V14.00,2013-03-07 21:22:00,
2013-03-07 14:28:00,64.3,30.5,29.84,ENE,61,1.0,6.0,28,0.00,,---,0.00,VWS V14.00,2013-03-07 21:28:00,
2013-03-07 14:33:00,65.4,30.6,29.84,SE,137,2.0,2.0,27,0.00,,---,0.00,VWS V14.00,2013-03-07 21:33:00,
2013-03-07 14:38:00,65.0,31.1,29.84,SE,127,2.0,11.0,28,0.00,,---,0.00,VWS V14.00,2013-03-07 21:38:00,
2013-03-07 14:44:00,65.2,31.3,29.84,SE,143,2.0,7.0,28,0.00,,---,0.00,VWS V14.00,2013-03-07 21:44:00,
2013-03-07 14:49:00,64.2,30.4,29.84,ESE,123,1.0,3.0,28,0.00,,---,0.00,VWS V14.00,2013-03-07 21:49:00,
2013-03-07 14:54:00,63.6,29.9,29.83,ESE,119,3.0,5.0,28,0.00,,---,0.00,VWS V14.00,2013-03-07 21:54:00,
2013-03-07 15:00:00,63.3,28.8,29.83,SE,129,2.0,5.0,27,0.00,,---,0.00,VWS V14.00,2013-03-07 22:00:00,
2013-03-07 15:05:00,63.1,29.5,29.84,SE,134,5.0,9.0,28,0.00,,---,0.00,VWS V14.00,2013-03-07 22:05:00,
2013-03-07 15:11:00,63.2,30.4,29.84,SE,132,2.0,5.0,29,0.00,,---,0.00,VWS V14.00,2013-03-07 22:11:00,
2013-03-07 15:16:00,64.2,30.4,29.84,ENE,73,0.0,4.0,28,0.00,,---,0.00,VWS V14.00,2013-03-07 22:16:00,
2013-03-07 15:22:00,65.4,31.5,29.83,ESE,113,3.0,11.0,28,0.00,,---,0.00,VWS V14.00,2013-03-07 22:22:00,
2013-03-07 15:27:00,65.8,30.0,29.83,SE,138,7.0,10.0,26,0.00,,---,0.00,VWS V14.00,2013-03-07 22:27:00,
2013-03-07 15:32:00,65.6,29.8,29.83,East,84,2.0,4.0,26,0.00,,---,0.00,VWS V14.00,2013-03-07 22:32:00,
2013-03-07 15:37:00,65.8,30.9,29.83,SE,140,6.0,6.0,27,0.00,,---,0.00,VWS V14.00,2013-03-07 22:37:00,
2013-03-07 15:42:00,66.0,29.2,29.83,SE,132,5.0,6.0,25,0.00,,---,0.00,VWS V14.00,2013-03-07 22:42:00,
2013-03-07 15:47:00,65.8,29.0,29.82,NE,53,0.0,5.0,25,0.00,,---,0.00,VWS V14.00,2013-03-07 22:47:00,
2013-03-07 15:52:00,66.2,26.3,29.83,SE,134,0.0,5.0,22,0.00,,---,0.00,VWS V14.00,2013-03-07 22:52:00,
2013-03-07 15:57:00,66.6,26.6,29.82,SE,133,0.0,3.0,22,0.00,,---,0.00,VWS V14.00,2013-03-07 22:57:00,
2013-03-07 16:02:00,66.5,25.4,29.81,ESE,121,7.0,10.0,21,0.00,,---,0.00,VWS V14.00,2013-03-07 23:02:00,
2013-03-07 16:08:00,65.6,23.5,29.82,SSE,157,2.0,5.0,20,0.00,,---,0.00,VWS V14.00,2013-03-07 23:08:00,
2013-03-07 16:13:00,65.4,24.5,29.82,ESE,118,2.0,3.0,21,0.00,,---,0.00,VWS V14.00,2013-03-07 23:13:00,
2013-03-07 16:18:00,65.3,24.4,29.82,SE,132,5.0,12.0,21,0.00,,---,0.00,VWS V14.00,2013-03-07 23:18:00,
2013-03-07 16:23:00,64.7,23.9,29.82,ESE,115,11.0,11.0,21,0.00,,---,0.00,VWS V14.00,2013-03-07 23:23:00,
2013-03-07 16:28:00,64.1,23.4,29.83,SE,136,1.0,6.0,21,0.00,,---,0.00,VWS V14.00,2013-03-07 23:28:00,
2013-03-07 16:33:00,63.9,24.3,29.83,ESE,120,2.0,5.0,22,0.00,,---,0.00,VWS V14.00,2013-03-07 23:33:00,
2013-03-07 16:38:00,63.8,24.2,29.84,SSE,161,2.0,5.0,22,0.00,,---,0.00,VWS V14.00,2013-03-07 23:38:00,
2013-03-07 16:43:00,63.5,22.9,29.83,SE,130,1.0,3.0,21,0.00,,---,0.00,VWS V14.00,2013-03-07 23:43:00,
2013-03-07 16:48:00,63.0,23.6,29.84,SE,126,3.0,3.0,22,0.00,,---,0.00,VWS V14.00,2013-03-07 23:48:00,
2013-03-07 16:53:00,62.9,23.5,29.84,SE,134,1.0,4.0,22,0.00,,---,0.00,VWS V14.00,2013-03-07 23:53:00,
2013-03-07 16:58:00,62.5,23.2,29.84,SSE,156,0.0,2.0,22,0.00,,---,0.00,VWS V14.00,2013-03-07 23:58:00,
2013-03-07 17:04:00,62.5,23.2,29.84,SSE,168,0.0,3.0,22,0.00,,---,0.00,VWS V14.00,2013-03-08 00:04:00,
2013-03-07 17:09:00,62.2,22.9,29.86,SE,137,2.0,6.0,22,0.00,,---,0.00,VWS V14.00,2013-03-08 00:09:00,
2013-03-07 17:14:00,61.9,22.7,29.86,SSE,153,2.0,2.0,22,0.00,,---,0.00,VWS V14.00,2013-03-08 00:14:00,
2013-03-07 17:19:00,61.7,22.5,29.86,SSE,165,0.0,1.0,22,0.00,,---,0.00,VWS V14.00,2013-03-08 00:19:00,
2013-03-07 17:24:00,61.4,23.3,29.86,SSE,152,0.0,2.0,23,0.00,,---,0.00,VWS V14.00,2013-03-08 00:24:00,
2013-03-07 17:29:00,61.3,24.2,29.86,SE,132,0.0,0.0,24,0.00,,---,0.00,VWS V14.00,2013-03-08 00:29:00,
2013-03-07 17:34:00,61.3,25.2,29.86,WSW,250,0.0,0.0,25,0.00,,---,0.00,VWS V14.00,2013-03-08 00:34:00,
2013-03-07 17:39:00,61.1,27.8,29.86,SW,234,2.0,5.0,28,0.00,,---,0.00,VWS V14.00,2013-03-08 00:39:00,
2013-03-07 17:44:00,60.3,27.9,29.86,SW,234,0.0,0.0,29,0.00,,---,0.00,VWS V14.00,2013-03-08 00:44:00,
2013-03-07 17:50:00,59.5,28.1,29.88,SW,233,0.0,1.0,30,0.00,,---,0.00,VWS V14.00,2013-03-08 00:50:00,
2013-03-07 17:55:00,59.0,28.4,29.88,SW,234,0.0,1.0,31,0.00,,---,0.00,VWS V14.00,2013-03-08 00:55:00,
2013-03-07 18:00:00,59.0,29.2,29.88,SSW,196,0.0,0.0,32,0.00,,---,0.00,VWS V14.00,2013-03-08 01:00:00,
2013-03-07 18:05:00,58.1,29.2,29.90,SSW,196,0.0,0.0,33,0.00,,---,0.00,VWS V14.00,2013-03-08 01:05:00,
2013-03-07 18:10:00,57.5,29.4,29.90,South,191,0.0,7.0,34,0.00,,---,0.00,VWS V14.00,2013-03-08 01:10:00,
2013-03-07 18:15:00,56.9,29.5,29.90,SSW,192,0.0,0.0,35,0.00,,---,0.00,VWS V14.00,2013-03-08 01:15:00,
2013-03-07 18:20:00,55.8,29.9,29.92,SSW,192,0.0,0.0,37,0.00,,---,0.00,VWS V14.00,2013-03-08 01:20:00,
2013-03-07 18:25:00,55.0,29.9,29.92,SSW,192,0.0,0.0,38,0.00,,---,0.00,VWS V14.00,2013-03-08 01:25:00,
2013-03-07 18:30:00,54.5,30.1,29.92,ESE,123,0.0,0.0,39,0.00,,---,0.00,VWS V14.00,2013-03-08 01:30:00,
2013-03-07 18:35:00,54.1,30.3,29.93,SE,133,0.0,1.0,40,0.00,,---,0.00,VWS V14.00,2013-03-08 01:35:00,
2013-03-07 18:40:00,53.5,29.8,29.94,SE,133,0.0,0.0,40,0.00,,---,0.00,VWS V14.00,2013-03-08 01:40:00,
2013-03-07 18:45:00,53.2,30.1,29.94,SE,133,0.0,0.0,41,0.00,,---,0.00,VWS V14.00,2013-03-08 01:45:00,
2013-03-07 18:50:00,52.6,30.2,29.95,SE,134,0.0,0.0,42,0.00,,---,0.00,VWS V14.00,2013-03-08 01:50:00,
2013-03-07 18:55:00,52.0,29.6,29.96,SE,134,0.0,0.0,42,0.00,,---,0.00,VWS V14.00,2013-03-08 01:55:00,
2013-03-07 19:00:00,51.7,29.9,29.96,SE,134,0.0,0.0,43,0.00,,---,0.00,VWS V14.00,2013-03-08 02:00:00,
2013-03-07 19:05:00,51.4,29.7,29.89,SE,132,0.0,0.0,43,0.00,,---,0.00,VWS V14.00,2013-03-08 02:05:00,
2013-03-07 19:10:00,51.4,30.2,29.90,SE,132,0.0,0.0,44,0.00,,---,0.00,VWS V14.00,2013-03-08 02:10:00,
2013-03-07 19:15:00,51.0,29.9,29.91,SE,132,0.0,0.0,44,0.00,,---,0.00,VWS V14.00,2013-03-08 02:15:00,
2013-03-07 19:20:00,50.7,29.6,29.91,SE,132,0.0,0.0,44,0.00,,---,0.00,VWS V14.00,2013-03-08 02:20:00,
2013-03-07 19:26:00,50.4,29.9,29.91,SE,132,0.0,0.0,45,0.00,,---,0.00,VWS V14.00,2013-03-08 02:26:00,
2013-03-07 19:31:00,50.1,29.6,29.91,SE,132,0.0,0.0,45,0.00,,---,0.00,VWS V14.00,2013-03-08 02:31:00,
2013-03-07 19:36:00,50.0,29.5,29.91,SE,132,0.0,1.0,45,0.00,,---,0.00,VWS V14.00,2013-03-08 02:36:00,
2013-03-07 19:41:00,49.7,29.8,29.91,SE,132,0.0,0.0,46,0.00,,---,0.00,VWS V14.00,2013-03-08 02:41:00,
2013-03-07 19:46:00,49.3,29.4,29.92,SE,132,0.0,0.0,46,0.00,,---,0.00,VWS V14.00,2013-03-08 02:46:00,
2013-03-07 19:51:00,49.3,29.4,29.92,SE,132,0.0,0.0,46,0.00,,---,0.00,VWS V14.00,2013-03-08 02:51:00,
2013-03-07 19:56:00,49.1,29.2,29.92,SE,132,0.0,0.0,46,0.00,,---,0.00,VWS V14.00,2013-03-08 02:56:00,
2013-03-07 20:01:00,48.9,29.0,29.92,SE,132,0.0,0.0,46,0.00,,---,0.00,VWS V14.00,2013-03-08 03:01:00,
2013-03-07 20:07:00,48.6,28.8,29.89,SE,132,0.0,0.0,46,0.00,,---,0.00,VWS V14.00,2013-03-08 03:07:00,
2013-03-07 20:12:00,48.6,29.3,29.89,SE,132,2.0,2.0,47,0.00,,---,0.00,VWS V14.00,2013-03-08 03:12:00,
2013-03-07 20:19:00,48.6,29.3,29.89,SE,132,0.0,0.0,47,0.00,,---,0.00,VWS V14.00,2013-03-08 03:19:00,
2013-03-07 20:24:00,48.3,29.0,29.91,SE,138,0.0,1.0,47,0.00,,---,0.00,VWS V14.00,2013-03-08 03:24:00,
2013-03-07 20:29:00,48.3,29.0,29.91,SW,221,0.0,3.0,47,0.00,,---,0.00,VWS V14.00,2013-03-08 03:29:00,
2013-03-07 20:34:00,48.6,28.8,29.91,SW,221,0.0,1.0,46,0.00,,---,0.00,VWS V14.00,2013-03-08 03:34:00,
2013-03-07 20:39:00,48.6,28.8,29.92,SW,221,0.0,0.0,46,0.00,,---,0.00,VWS V14.00,2013-03-08 03:39:00,
2013-03-07 20:44:00,48.0,28.2,29.93,SW,221,0.0,0.0,46,0.00,,---,0.00,VWS V14.00,2013-03-08 03:44:00,
2013-03-07 20:49:00,47.9,28.7,29.93,SW,221,0.0,0.0,47,0.00,,---,0.00,VWS V14.00,2013-03-08 03:49:00,
2013-03-07 20:54:00,47.2,28.0,29.93,SW,221,0.0,0.0,47,0.00,,---,0.00,VWS V14.00,2013-03-08 03:54:00,
2013-03-07 20:59:00,46.7,28.1,29.93,SW,221,0.0,1.0,48,0.00,,---,0.00,VWS V14.00,2013-03-08 03:59:00,
2013-03-07 21:04:00,46.8,27.6,29.91,SW,221,0.0,0.0,47,0.00,,---,0.00,VWS V14.00,2013-03-08 04:04:00,
2013-03-07 21:09:00,46.9,27.7,29.92,SW,221,0.0,0.0,47,0.00,,---,0.00,VWS V14.00,2013-03-08 04:09:00,
2013-03-07 21:14:00,47.1,27.9,29.92,SW,221,0.0,0.0,47,0.00,,---,0.00,VWS V14.00,2013-03-08 04:14:00,
2013-03-07 21:19:00,46.9,27.7,29.92,SW,221,0.0,0.0,47,0.00,,---,0.00,VWS V14.00,2013-03-08 04:19:00,
2013-03-07 21:24:00,46.7,27.6,29.92,SW,221,0.0,0.0,47,0.00,,---,0.00,VWS V14.00,2013-03-08 04:24:00,
2013-03-07 21:29:00,46.2,27.6,29.93,SW,221,0.0,1.0,48,0.00,,---,0.00,VWS V14.00,2013-03-08 04:29:00,
2013-03-07 21:34:00,46.5,27.4,29.93,SW,221,0.0,0.0,47,0.00,,---,0.00,VWS V14.00,2013-03-08 04:34:00,
2013-03-07 21:39:00,47.2,27.5,29.94,SW,221,0.0,0.0,46,0.00,,---,0.00,VWS V14.00,2013-03-08 04:39:00,
2013-03-07 21:44:00,46.8,27.1,29.94,SW,221,0.0,0.0,46,0.00,,---,0.00,VWS V14.00,2013-03-08 04:44:00,
2013-03-07 21:49:00,46.7,27.0,29.94,SW,221,0.0,1.0,46,0.00,,---,0.00,VWS V14.00,2013-03-08 04:49:00,
2013-03-07 21:54:00,46.7,27.0,29.94,SW,221,0.0,1.0,46,0.00,,---,0.00,VWS V14.00,2013-03-08 04:54:00,
2013-03-07 21:59:00,46.7,27.0,29.94,SW,221,1.0,1.0,46,0.00,,---,0.00,VWS V14.00,2013-03-08 04:59:00,
2013-03-07 22:00:00,46.7,27.0,29.94,SW,221,0.0,1.0,46,0.00,,---,0.00,VWS V14.00,2013-03-08 05:00:00,
2013-03-07 22:01:00,46.7,27.0,29.94,SW,219,1.0,3.0,46,0.00,,---,0.00,VWS V14.00,2013-03-08 05:01:00,
2013-03-07 22:02:00,46.7,27.0,29.94,SW,219,0.0,1.0,46,0.00,,---,0.00,VWS V14.00,2013-03-08 05:02:00,
2013-03-07 22:07:00,46.4,27.3,29.91,SW,219,0.0,0.0,47,0.00,,---,0.00,VWS V14.00,2013-03-08 05:07:00,
2013-03-07 22:12:00,46.3,27.2,29.91,SW,219,0.0,0.0,47,0.00,,---,0.00,VWS V14.00,2013-03-08 05:12:00,
2013-03-07 22:17:00,45.9,27.3,29.91,SW,218,0.0,0.0,48,0.00,,---,0.00,VWS V14.00,2013-03-08 05:17:00,
2013-03-07 22:22:00,45.6,27.6,29.91,SW,219,0.0,1.0,49,0.00,,---,0.00,VWS V14.00,2013-03-08 05:22:00,
2013-03-07 22:27:00,45.5,27.5,29.91,SW,215,0.0,1.0,49,0.00,,---,0.00,VWS V14.00,2013-03-08 05:27:00,
2013-03-07 22:32:00,45.8,27.7,29.91,SW,226,0.0,4.0,49,0.00,,---,0.00,VWS V14.00,2013-03-08 05:32:00,
2013-03-07 22:34:00,45.8,27.7,29.91,SW,227,0.0,0.0,49,0.00,,---,0.00,VWS V14.00,2013-03-08 05:34:00,
2013-03-07 22:39:00,45.4,27.9,29.92,SW,226,0.0,2.0,50,0.00,,---,0.00,VWS V14.00,2013-03-08 05:39:00,
2013-03-07 22:44:00,45.0,27.5,29.92,SW,227,0.0,1.0,50,0.00,,---,0.00,VWS V14.00,2013-03-08 05:44:00,
2013-03-07 22:49:00,44.7,27.7,29.92,SW,227,0.0,0.0,51,0.00,,---,0.00,VWS V14.00,2013-03-08 05:49:00,
2013-03-07 22:54:00,44.3,27.8,29.92,SW,227,0.0,0.0,52,0.00,,---,0.00,VWS V14.00,2013-03-08 05:54:00,
2013-03-07 22:59:00,44.0,28.0,29.92,SW,226,0.0,0.0,53,0.00,,---,0.00,VWS V14.00,2013-03-08 05:59:00,
2013-03-07 23:04:00,43.4,27.4,29.90,SW,227,0.0,0.0,53,0.00,,---,0.00,VWS V14.00,2013-03-08 06:04:00,
2013-03-07 23:10:00,42.7,27.2,29.90,SW,227,0.0,0.0,54,0.00,,---,0.00,VWS V14.00,2013-03-08 06:10:00,
2013-03-07 23:16:00,42.1,27.5,29.92,SW,227,0.0,0.0,56,0.00,,---,0.00,VWS V14.00,2013-03-08 06:16:00,
2013-03-07 23:22:00,41.7,27.6,29.92,SW,227,0.0,0.0,57,0.00,,---,0.00,VWS V14.00,2013-03-08 06:22:00,
2013-03-07 23:27:00,41.4,27.3,29.93,SW,226,0.0,0.0,57,0.00,,---,0.00,VWS V14.00,2013-03-08 06:27:00,
2013-03-07 23:32:00,41.1,27.5,29.93,SW,227,0.0,0.0,58,0.00,,---,0.00,VWS V14.00,2013-03-08 06:32:00,
2013-03-07 23:37:00,40.8,27.2,29.93,SW,227,0.0,0.0,58,0.00,,---,0.00,VWS V14.00,2013-03-08 06:37:00,
2013-03-07 23:43:00,40.6,27.0,29.93,SW,227,0.0,0.0,58,0.00,,---,0.00,VWS V14.00,2013-03-08 06:43:00,
2013-03-07 23:48:00,40.5,26.9,29.92,SW,227,0.0,0.0,58,0.00,,---,0.00,VWS V14.00,2013-03-08 06:48:00,
2013-03-07 23:54:00,40.4,26.8,29.93,SW,226,0.0,0.0,58,0.00,,---,0.00,VWS V14.00,2013-03-08 06:54:00,
2013-03-07 23:59:00,40.3,26.7,29.93,SW,227,0.0,0.0,58,0.00,,---,0.00,VWS V14.00,2013-03-08 06:59:00,